When you browse on this site, cookies collect data to enhance your experience and personalize the content and advertising you see.
Visit our Privacy Policy to learn more. By continuing to use the site, you agree to this use of cookies and data.
  • In Deutschland
  • Länderverzeichnis
  • Für 7 Tage
  • Wassertemperatur
  • Satellitenkarten
  • Wetterkarte
  • Widgets
  • user-avatar
    Anmelden

    Stündliche Wetter El Quseir

    Heute, 22 Januar, Dienstag

    Zeit Temperatur Niederschläge Wind Luftdruck Luftfeuchtigkeit
    00:00 +20°C° 0 mm 1 m/S 761 mmHg 39%
    01:00 +19°C° 0 mm 1 m/S 761 mmHg 38%
    02:00 +19°C° 0 mm 1 m/S 760 mmHg 41%
    03:00 +18°C° 0 mm 1 m/S 760 mmHg 40%
    04:00 +18°C° 0 mm 1 m/S 760 mmHg 40%
    05:00 +16°C° 0 mm 1 m/S 760 mmHg 39%
    06:00 +19°C° 0 mm 1 m/S 760 mmHg 34%
    07:00 +19°C° 0 mm 0 m/S 761 mmHg 29%
    08:00 +22°C° 0 mm 0 m/S 761 mmHg 23%
    09:00 +25°C° 0 mm 1 m/S 761 mmHg 21%
    10:00 +26°C° 0 mm 1 m/S 761 mmHg 19%
    11:00 +27°C° 0 mm 2 m/S 761 mmHg 17%
    12:00 +28°C° 0 mm 3 m/S 760 mmHg 19%
    13:00 +28°C° 0 mm 3 m/S 760 mmHg 21%
    14:00 +28°C° 0 mm 4 m/S 760 mmHg 23%
    15:00 +27°C° 0 mm 4 m/S 760 mmHg 27%
    16:00 +26°C° 0 mm 3 m/S 759 mmHg 32%
    17:00 +25°C° 0 mm 3 m/S 759 mmHg 36%
    18:00 +22°C° 0 mm 3 m/S 759 mmHg 40%
    19:00 +21°C° 0 mm 3 m/S 760 mmHg 43%
    20:00 +19°C° 0 mm 3 m/S 760 mmHg 47%
    21:00 +19°C° 0 mm 3 m/S 760 mmHg 48%
    22:00 +18°C° 0 mm 4 m/S 760 mmHg 48%
    23:00 +18°C° 0 mm 4 m/S 760 mmHg 49%

    Morgen, 23 Januar, Mittwoch

    Zeit Temperatur Niederschläge Wind Luftdruck Luftfeuchtigkeit
    00:00 +16°C° 0 mm 5 m/S 760 mmHg 48%
    01:00 +16°C° 0 mm 5 m/S 760 mmHg 47%
    02:00 +16°C° 0 mm 5 m/S 760 mmHg 47%
    03:00 +16°C° 0 mm 5 m/S 760 mmHg 46%
    04:00 +16°C° 0 mm 5 m/S 760 mmHg 45%
    05:00 +16°C° 0 mm 5 m/S 759 mmHg 45%
    06:00 +17°C° 0 mm 5 m/S 760 mmHg 41%
    07:00 +19°C° 0 mm 5 m/S 760 mmHg 38%
    08:00 +20°C° 0 mm 4 m/S 760 mmHg 35%
    09:00 +21°C° 0 mm 4 m/S 760 mmHg 32%
    10:00 +22°C° 0 mm 3 m/S 760 mmHg 30%
    11:00 +25°C° 0 mm 3 m/S 760 mmHg 27%
    12:00 +25°C° 0 mm 3 m/S 759 mmHg 28%
    13:00 +26°C° 0 mm 3 m/S 759 mmHg 28%
    14:00 +26°C° 0 mm 3 m/S 758 mmHg 28%
    15:00 +26°C° 0 mm 3 m/S 758 mmHg 32%
    16:00 +25°C° 0 mm 3 m/S 758 mmHg 36%
    17:00 +24°C° 0 mm 3 m/S 758 mmHg 40%
    18:00 +22°C° 0 mm 3 m/S 758 mmHg 46%
    19:00 +21°C° 0 mm 3 m/S 758 mmHg 52%
    20:00 +20°C° 0 mm 3 m/S 759 mmHg 57%
    21:00 +19°C° 0 mm 3 m/S 759 mmHg 60%
    22:00 +19°C° 0 mm 3 m/S 759 mmHg 62%
    23:00 +19°C° 0 mm 4 m/S 758 mmHg 64%

    übermorgen, 24 Januar, Donnerstag

    Zeit Temperatur Niederschläge Wind Luftdruck Luftfeuchtigkeit
    00:00 +19°C° 0 mm 4 m/S 758 mmHg 62%
    01:00 +19°C° 0 mm 4 m/S 758 mmHg 60%
    02:00 +19°C° 0 mm 4 m/S 758 mmHg 59%
    03:00 +18°C° 0 mm 4 m/S 758 mmHg 59%
    04:00 +18°C° 0 mm 4 m/S 758 mmHg 59%
    05:00 +17°C° 0 mm 5 m/S 758 mmHg 59%
    06:00 +19°C° 0 mm 5 m/S 758 mmHg 56%
    07:00 +20°C° 0 mm 5 m/S 758 mmHg 53%
    08:00 +22°C° 0 mm 5 m/S 758 mmHg 51%
    09:00 +23°C° 0 mm 5 m/S 758 mmHg 47%
    10:00 +26°C° 0 mm 5 m/S 758 mmHg 43%
    11:00 +27°C° 0 mm 5 m/S 758 mmHg 40%
    12:00 +28°C° 0 mm 6 m/S 757 mmHg 37%
    13:00 +29°C° 0 mm 7 m/S 757 mmHg 34%
    14:00 +31°C° 0 mm 8 m/S 756 mmHg 31%
    15:00 +30°C° 0 mm 7 m/S 756 mmHg 34%
    16:00 +29°C° 0 mm 7 m/S 756 mmHg 36%
    17:00 +28°C° 0 mm 7 m/S 756 mmHg 39%
    18:00 +26°C° 0 mm 7 m/S 757 mmHg 42%
    19:00 +24°C° 0 mm 6 m/S 757 mmHg 46%
    20:00 +22°C° 0 mm 6 m/S 758 mmHg 50%
    21:00 +22°C° 0 mm 5 m/S 758 mmHg 42%
    22:00 +22°C° 0 mm 4 m/S 758 mmHg 34%
    23:00 +22°C° 0 mm 3 m/S 758 mmHg 26%

    25 Januar, Freitag

    Zeit Temperatur Niederschläge Wind Luftdruck Luftfeuchtigkeit
    00:00 +21°C° 0 mm 3 m/S 758 mmHg 25%
    01:00 +21°C° 0 mm 3 m/S 758 mmHg 25%
    02:00 +20°C° 0 mm 3 m/S 758 mmHg 25%
    03:00 +20°C° 0 mm 4 m/S 758 mmHg 38%
    04:00 +19°C° 0 mm 4 m/S 757 mmHg 52%
    05:00 +19°C° 0 mm 4 m/S 757 mmHg 65%
    06:00 +20°C° 0 mm 4 m/S 758 mmHg 63%
    07:00 +21°C° 0 mm 4 m/S 758 mmHg 60%
    08:00 +22°C° 0 mm 4 m/S 759 mmHg 57%
    09:00 +25°C° 0 mm 3 m/S 759 mmHg 50%
    10:00 +26°C° 0 mm 3 m/S 759 mmHg 43%
    11:00 +27°C° 0 mm 2 m/S 759 mmHg 36%
    12:00 +28°C° 0 mm 3 m/S 758 mmHg 37%
    13:00 +28°C° 0 mm 3 m/S 758 mmHg 37%
    14:00 +29°C° 0 mm 3 m/S 757 mmHg 37%
    15:00 +28°C° 0 mm 3 m/S 757 mmHg 42%
    16:00 +27°C° 0 mm 3 m/S 757 mmHg 47%
    17:00 +26°C° 0 mm 2 m/S 757 mmHg 53%
    18:00 +25°C° 0 mm 2 m/S 757 mmHg 60%
    19:00 +24°C° 0 mm 2 m/S 757 mmHg 67%
    20:00 +24°C° 0 mm 2 m/S 758 mmHg 74%
    21:00 +23°C° 0 mm 2 m/S 758 mmHg 75%
    22:00 +23°C° 0 mm 1 m/S 757 mmHg 76%
    23:00 +23°C° 0 mm 1 m/S 757 mmHg 77%

    26 Januar, Samstag

    Zeit Temperatur Niederschläge Wind Luftdruck Luftfeuchtigkeit
    00:00 +23°C° 0 mm 1 m/S 757 mmHg 79%
    01:00 +22°C° 0 mm 1 m/S 757 mmHg 82%
    02:00 +21°C° 0 mm 1 m/S 756 mmHg 84%
    03:00 +22°C° 0 mm 1 m/S 756 mmHg 84%
    04:00 +22°C° 0 mm 1 m/S 756 mmHg 83%
    05:00 +21°C° 0 mm 2 m/S 756 mmHg 83%
    06:00 +23°C° 0 mm 2 m/S 756 mmHg 78%
    07:00 +24°C° 0 mm 2 m/S 757 mmHg 73%
    08:00 +25°C° 0 mm 2 m/S 757 mmHg 68%
    09:00 +26°C° 0 mm 2 m/S 757 mmHg 61%
    10:00 +27°C° 0 mm 2 m/S 757 mmHg 55%
    11:00 +28°C° 0 mm 2 m/S 757 mmHg 48%
    12:00 +29°C° 0 mm 3 m/S 757 mmHg 46%
    13:00 +29°C° 0 mm 3 m/S 756 mmHg 43%
    14:00 +30°C° 0 mm 3 m/S 756 mmHg 41%
    15:00 +29°C° 0 mm 3 m/S 756 mmHg 46%
    16:00 +28°C° 0 mm 3 m/S 756 mmHg 51%
    17:00 +27°C° 0 mm 2 m/S 756 mmHg 55%
    18:00 +26°C° 0 mm 2 m/S 756 mmHg 62%
    19:00 +24°C° 0 mm 1 m/S 757 mmHg 69%
    20:00 +23°C° 0 mm 1 m/S 757 mmHg 75%
    21:00 +23°C° 0 mm 1 m/S 757 mmHg 73%
    22:00 +23°C° 0 mm 1 m/S 757 mmHg 71%
    23:00 +21°C° 0 mm 2 m/S 757 mmHg 69%

    27 Januar, Sonntag

    Zeit Temperatur Niederschläge Wind Luftdruck Luftfeuchtigkeit
    00:00 +21°C° 0 mm 3 m/S 757 mmHg 63%
    01:00 +21°C° 0 mm 4 m/S 757 mmHg 57%
    02:00 +21°C° 0 mm 5 m/S 757 mmHg 51%
    03:00 +21°C° 0 mm 5 m/S 757 mmHg 47%
    04:00 +20°C° 0 mm 6 m/S 757 mmHg 43%
    05:00 +20°C° 0 mm 7 m/S 757 mmHg 39%
    06:00 +21°C° 0 mm 7 m/S 758 mmHg 34%
    07:00 +22°C° 0 mm 7 m/S 758 mmHg 29%
    08:00 +23°C° 0 mm 7 m/S 759 mmHg 24%
    09:00 +24°C° 0 mm 7 m/S 759 mmHg 21%
    10:00 +27°C° 0 mm 7 m/S 759 mmHg 17%
    11:00 +28°C° 0 mm 6 m/S 759 mmHg 14%
    12:00 +28°C° 0 mm 7 m/S 758 mmHg 14%
    13:00 +28°C° 0 mm 7 m/S 758 mmHg 15%
    14:00 +29°C° 0 mm 7 m/S 758 mmHg 16%
    15:00 +28°C° 0 mm 6 m/S 758 mmHg 19%
    16:00 +27°C° 0 mm 6 m/S 758 mmHg 22%
    17:00 +26°C° 0 mm 5 m/S 758 mmHg 26%
    18:00 +23°C° 0 mm 5 m/S 759 mmHg 30%
    19:00 +22°C° 0 mm 5 m/S 759 mmHg 33%
    20:00 +21°C° 0 mm 5 m/S 760 mmHg 37%
    21:00 +20°C° 0 mm 5 m/S 760 mmHg 37%
    22:00 +20°C° 0 mm 6 m/S 760 mmHg 38%
    23:00 +19°C° 0 mm 6 m/S 760 mmHg 38%
    Mehr zeigen